Weather History for Upington, South Africa

Change the Weather History Date:

Saturday, October 20, 2012

  Actual Average Record
Temperature  
Mean Temperature 54 °F -  
Max Temperature 68 °F 87 °F 100 °F (2014)
Min Temperature 40 °F 59 °F 40 °F (2012)
Degree Days  
Heating Degree Days 11    
Growing Degree Days 4 (Base 50)    
Moisture  
Dew Point 31 °F    
Average Humidity 43    
Maximum Humidity 75    
Minimum Humidity 11    
Precipitation  
Precipitation 0.00 in 0.00 in - ()
Sea Level Pressure  
Sea Level Pressure 30.08 in    
Wind  
Wind Speed 6 mph ()    
Max Wind Speed 10 mph    
Max Gust Speed -    
Visibility 6.2 miles    
Events      
Averages and records for this station are not official NWS values.
T = Trace of Precipitation, MM = Missing Value Source: Averaged Metar Reports

Daily Weather History Graph

Daily Weather History Graph

Search for Another Location

Airport:

Trip Planner

Search our weather history database for the weather conditions in past years. The results will help you decide how hot, cold, wet, or windy it might be!

Date:

Astronomy

Oct. 20, 2012 Rise Set
Actual Time 5:52 AM SAST 6:46 PM SAST
Civil Twilight 5:28 AM SAST 7:11 PM SAST
Nautical Twilight 5:00 AM SAST 7:39 PM SAST
Astronomical Twilight 4:30 AM SAST 8:09 PM SAST
Moon 10:08 AM SAST (10/20) No Moon Set
Length of Visible Light 13h 42m
Length of Day
12h 53m
Waxing Crescent, 31% of the Moon is Illuminated
Oct 20
Waxing Crescent
Oct 22
First Quarter
Oct 29
Full
Nov 7
Last Quarter
Nov 14
New

Hourly Weather History & Observations

Time (SAST) Temp. Windchill Dew Point Humidity Pressure Visibility Wind Dir Wind Speed Gust Speed Precip Events Conditions
12:00 AM 46.4 °F 41.5 °F 32.0 °F 57% 30.09 in - SSW 10.4 mph - N/A   Unknown
1:00 AM 44.6 °F 39.7 °F 32.0 °F 61% 30.09 in - SW 9.2 mph - N/A   Unknown
2:00 AM 44 °F - 32 °F 52%  in - SW 8.1 mph - -  
2:00 AM 42.8 °F 38.0 °F 32.0 °F 66% 30.09 in - SW 8.1 mph - N/A   Unknown
3:00 AM 42.8 °F 38.0 °F 32.0 °F 66% 30.09 in - SW 8.1 mph - N/A   Unknown
4:00 AM 41.0 °F 35.8 °F 32.0 °F 70% 30.09 in - SW 8.1 mph - N/A   Unknown
5:00 AM 41 °F - 33 °F 64%  in 25 mi SW 5.8 mph - -  
5:00 AM 41.0 °F 38.0 °F 32.0 °F 70% 30.09 in - SW 4.6 mph - N/A   Clear
6:00 AM 39.2 °F 35.0 °F 32.0 °F 75% 30.09 in - WSW 5.8 mph - N/A   Clear
7:00 AM 42.8 °F 38.6 °F 33.8 °F 70% 30.12 in 6.2 mi WSW 6.9 mph - N/A   Partly Cloudy
8:00 AM 46 °F - 35 °F 55%  in 25 mi SW 6.9 mph - -   Scattered Clouds
8:00 AM 44.6 °F 41.4 °F 33.8 °F 66% 30.15 in 6.2 mi SW 5.8 mph - N/A   Partly Cloudy
9:00 AM 48.2 °F - 35.6 °F 62% 30.15 in 6.2 mi SSW 5.8 mph - N/A   Partly Cloudy
10:00 AM 53.6 °F - 33.8 °F 47% 30.12 in 6.2 mi ESE 3.5 mph - N/A   Partly Cloudy
11:00 AM 58 °F - 34 °F 29%  in 25 mi SW 3.5 mph - -   Scattered Clouds
11:00 AM 57.2 °F - 33.8 °F 41% 30.12 in 6.2 mi SW 3.5 mph - N/A   Partly Cloudy
12:00 PM 59.0 °F - 32.0 °F 36% 30.09 in 6.2 mi SW 5.8 mph - N/A   Partly Cloudy
1:00 PM 60.8 °F - 32.0 °F 34% 30.06 in 6.2 mi SSW 4.6 mph - N/A   Partly Cloudy
1:52 PM 64.4 °F - 32.0 °F 30% 30.06 in 6.2 mi SW 6.9 mph - N/A   Partly Cloudy
2:00 PM 65 °F - 31 °F 17%  in 25 mi SW 8.1 mph - -   Scattered Clouds
2:00 PM 64.4 °F - 32.0 °F 30% 30.06 in 6.2 mi SW 6.9 mph - N/A   Partly Cloudy
3:00 PM 64.4 °F - 28.4 °F 26% 30.04 in 6.2 mi West 5.8 mph - N/A   Partly Cloudy
4:00 PM 66.2 °F - 26.6 °F 23% 30.01 in 6.2 mi SW 4.6 mph - N/A   Partly Cloudy
5:00 PM 67 °F - 26 °F 11%  in 25 mi West 6.9 mph - -   Scattered Clouds
5:00 PM 66.2 °F - 26.6 °F 23% 30.01 in 6.2 mi West 6.9 mph - N/A   Partly Cloudy
6:00 PM 64.4 °F - 24.8 °F 22% 30.01 in 6.2 mi SW 2.3 mph - N/A   Partly Cloudy
7:00 PM 60.8 °F - 26.6 °F 27% 30.04 in 6.2 mi WSW 3.5 mph - N/A   Partly Cloudy
8:00 PM 56 °F - 28 °F 22%  in 25 mi West 5.8 mph - -   Scattered Clouds
8:00 PM 55.4 °F - 28.4 °F 36% 30.04 in 6.2 mi West 4.6 mph - N/A   Partly Cloudy
9:00 PM 55.4 °F - 26.6 °F 33% 30.06 in - West 6.9 mph - N/A   Unknown
10:00 PM 53.6 °F - 26.6 °F 35% 30.06 in - WNW 8.1 mph - N/A   Unknown
11:00 PM 53 °F - 27 °F 24%  in - WNW 6.9 mph - -  
11:00 PM 51.8 °F - 26.6 °F 38% 30.06 in - WNW 6.9 mph - N/A   Unknown